Location: Lane
(33.5226°N, 79.8788°W)
Time: 08:56:57
(UTC+00:00)

Tiros 1 despin weight - Pass Details

Date: 10 October 2022
Orbit: 590 x 637 km, 48.2° (Epoch: 28 November)

Event Time Altitude Azimuth Distance (km) Brightness Sun altitude
Rises 00:56:36 0° 308° (NW) 2,879 ? -26.5°
Reaches altitude 10° 00:58:54 10° 308° (NW) 1,980 ? -26.9°
Enters shadow 01:02:23 53° 310° (NW) 770 ? -27.6°
Maximum altitude 01:03:28 89° 39° (NE) 628 - -27.9°
Drops below altitude 10° 01:08:05 10° 129° (SE) 2,000 - -28.8°
Sets 01:10:24 0° 130° (SE) 2,910 - -29.3°
